Location: Braunsdorf
(50.7357°N, 11.9136°E)
Time: 04:41:03
(UTC+00:00)

Meteor 2-1 Rocket - Pass Details

Date: 17 February 2020
Orbit: 828 x 908 km, 81.3° (Epoch: 31 March)

Event Time Altitude Azimuth Distance (km) Brightness Sun altitude
Exits shadow 03:25:18 59° 353° (N) 962 4.4 -28.4°
Drops below altitude 10° 03:29:49 10° 10° (N) 2,462 6.9 -27.7°
Sets 03:32:15 0° 12° (NNE) 3,409 7.7 -27.3°
